Location: Goudex
(43.3760°N, 0.9543°E)
Time: 20:47:04
(UTC+00:00)

Cosmos 2360 Rocket - Pass Details

Date: 20 November 2019
Orbit: 832 x 847 km, 71.0° (Epoch: 13 December)

Event Time Altitude Azimuth Distance (km) Brightness Sun altitude
Exits shadow 04:04:58 15° 4° (N) 2,146 4.3 -30.7°
Maximum altitude 04:08:33 27° 52° (NE) 1,591 4.0 -30.1°
Drops below altitude 10° 04:13:17 10° 109° (ESE) 2,466 5.5 -29.2°
Sets 04:16:07 0° 121° (ESE) 3,396 6.2 -28.7°
